Time,TemperatureF,DewpointF,PressureIn,WindDirection,WindDirectionDegrees,WindSpeedMPH,WindSpeedGustMPH,Humidity,HourlyPrecipIn,Conditions,Clouds,dailyrainin,SoftwareType,DateUTC
2013-09-26 00:09:00,33.8,30.1,29.96,ENE,67,0.0,-999.0,86,-99.99,,,0.00,Acu-Link.com,2013-09-26 07:09:00,
2013-09-26 00:24:00,33.8,30.1,29.96,ENE,67,0.0,-999.0,86,-99.99,,,0.00,Acu-Link.com,2013-09-26 07:24:00,
2013-09-26 00:39:00,33.8,30.3,29.96,NE,45,0.0,-999.0,87,-99.99,,,0.00,Acu-Link.com,2013-09-26 07:39:00,
2013-09-26 00:54:00,33.8,30.3,29.96,NE,45,1.6,-999.0,87,-99.99,,,0.00,Acu-Link.com,2013-09-26 07:54:00,
2013-09-26 01:10:00,33.8,30.3,29.96,NNE,22,0.0,-999.0,87,-99.99,,,0.00,Acu-Link.com,2013-09-26 08:10:00,
2013-09-26 01:25:00,33.8,30.3,29.97,NE,45,0.0,-999.0,87,-99.99,,,0.00,Acu-Link.com,2013-09-26 08:25:00,
2013-09-26 01:40:00,33.8,30.6,29.97,NNE,22,0.0,-999.0,88,-99.99,,,0.00,Acu-Link.com,2013-09-26 08:40:00,
2013-09-26 01:56:00,33.8,30.6,29.97,ENE,67,1.1,-999.0,88,-99.99,,,0.00,Acu-Link.com,2013-09-26 08:56:00,
2013-09-26 02:11:00,33.8,30.9,29.97,NNE,22,0.0,-999.0,89,-99.99,,,0.00,Acu-Link.com,2013-09-26 09:11:00,
2013-09-26 02:27:00,33.8,30.9,29.97,NE,45,1.6,-999.0,89,-99.99,,,0.00,Acu-Link.com,2013-09-26 09:27:00,
2013-09-26 02:42:00,32.0,29.4,29.98,NE,45,1.1,-999.0,90,-99.99,,,0.00,Acu-Link.com,2013-09-26 09:42:00,
2013-09-26 02:57:00,32.0,29.4,29.98,NE,45,1.6,-999.0,90,-99.99,,,0.00,Acu-Link.com,2013-09-26 09:57:00,
2013-09-26 03:12:00,32.0,29.4,29.98,NE,45,1.1,-999.0,90,-99.99,,,0.00,Acu-Link.com,2013-09-26 10:12:00,
2013-09-26 03:28:00,32.0,29.7,29.98,NE,45,1.6,-999.0,91,-99.99,,,0.00,Acu-Link.com,2013-09-26 10:28:00,
2013-09-26 03:43:00,32.0,31.5,29.98,NE,45,1.6,-999.0,98,-99.99,,,0.00,Acu-Link.com,2013-09-26 10:43:00,
2013-09-26 03:58:00,32.0,31.5,29.98,NE,45,1.6,-999.0,98,-99.99,,,0.00,Acu-Link.com,2013-09-26 10:58:00,
2013-09-26 04:13:00,32.0,31.5,29.98,NE,45,1.6,-999.0,98,-99.99,,,0.00,Acu-Link.com,2013-09-26 11:13:00,
2013-09-26 04:28:00,32.0,31.5,29.98,ENE,67,1.6,-999.0,98,-99.99,,,0.00,Acu-Link.com,2013-09-26 11:28:00,
2013-09-26 04:43:00,32.0,31.5,29.98,NE,45,0.0,-999.0,98,-99.99,,,0.00,Acu-Link.com,2013-09-26 11:43:00,
2013-09-26 04:59:00,32.0,31.5,29.98,NE,45,1.6,-999.0,98,-99.99,,,0.00,Acu-Link.com,2013-09-26 11:59:00,
2013-09-26 05:14:00,32.0,31.5,29.99,ENE,67,1.1,-999.0,98,-99.99,,,0.00,Acu-Link.com,2013-09-26 12:14:00,
2013-09-26 05:29:00,32.0,31.5,30.00,NNE,22,0.0,-999.0,98,-99.99,,,0.00,Acu-Link.com,2013-09-26 12:29:00,
2013-09-26 05:44:00,32.0,31.5,30.01,NE,45,0.0,-999.0,98,-99.99,,,0.00,Acu-Link.com,2013-09-26 12:44:00,
2013-09-26 05:59:00,30.2,29.7,30.01,West,270,0.0,-999.0,98,-99.99,,,0.00,Acu-Link.com,2013-09-26 12:59:00,
2013-09-26 06:15:00,30.2,29.7,30.00,East,90,0.0,-999.0,98,-99.99,,,0.00,Acu-Link.com,2013-09-26 13:15:00,
2013-09-26 06:30:00,30.2,29.7,30.00,ESE,112,0.0,-999.0,98,-99.99,,,0.00,Acu-Link.com,2013-09-26 13:30:00,
2013-09-26 06:45:00,28.4,27.9,30.01,East,90,0.0,-999.0,98,-99.99,,,0.00,Acu-Link.com,2013-09-26 13:45:00,
2013-09-26 07:00:00,28.4,27.9,30.01,SSW,202,0.0,-999.0,98,-99.99,,,0.00,Acu-Link.com,2013-09-26 14:00:00,
2013-09-26 07:16:00,28.4,27.9,30.01,SSW,202,0.0,-999.0,98,-99.99,,,0.00,Acu-Link.com,2013-09-26 14:16:00,
2013-09-26 07:31:00,28.4,27.9,30.02,SSE,157,0.0,-999.0,98,-99.99,,,0.00,Acu-Link.com,2013-09-26 14:31:00,
2013-09-26 07:46:00,28.4,27.9,30.02,ESE,112,0.0,-999.0,98,-99.99,,,0.00,Acu-Link.com,2013-09-26 14:46:00,
2013-09-26 08:01:00,28.4,27.9,30.02,SE,135,0.0,-999.0,98,-99.99,,,0.00,Acu-Link.com,2013-09-26 15:01:00,
2013-09-26 08:17:00,30.2,29.7,30.02,South,180,0.0,-999.0,98,-99.99,,,0.00,Acu-Link.com,2013-09-26 15:17:00,
2013-09-26 08:32:00,30.2,29.7,30.02,SSW,202,0.0,-999.0,98,-99.99,,,0.00,Acu-Link.com,2013-09-26 15:32:00,
2013-09-26 08:47:00,30.2,29.7,30.02,SSW,202,0.0,-999.0,98,-99.99,,,0.00,Acu-Link.com,2013-09-26 15:47:00,
2013-09-26 09:03:00,32.0,31.5,30.03,SW,225,0.0,-999.0,98,-99.99,,,0.00,Acu-Link.com,2013-09-26 16:03:00,
2013-09-26 09:18:00,32.0,31.5,30.02,South,180,0.0,-999.0,98,-99.99,,,0.00,Acu-Link.com,2013-09-26 16:18:00,
2013-09-26 09:33:00,33.8,33.3,30.02,NW,315,0.0,-999.0,98,-99.99,,,0.00,Acu-Link.com,2013-09-26 16:33:00,
2013-09-26 09:49:00,33.8,33.3,30.02,South,180,0.0,-999.0,98,-99.99,,,0.00,Acu-Link.com,2013-09-26 16:49:00,
2013-09-26 10:04:00,37.4,34.7,30.02,South,180,0.0,-999.0,90,-99.99,,,0.00,Acu-Link.com,2013-09-26 17:04:00,
2013-09-26 10:19:00,37.4,33.6,30.02,ENE,67,1.6,-999.0,86,-99.99,,,0.00,Acu-Link.com,2013-09-26 17:19:00,
2013-09-26 10:34:00,41.0,35.0,30.01,WNW,292,3.6,-999.0,79,-99.99,,,0.00,Acu-Link.com,2013-09-26 17:34:00,
2013-09-26 10:49:00,42.8,35.8,30.01,South,180,1.6,-999.0,76,-99.99,,,0.00,Acu-Link.com,2013-09-26 17:49:00,
2013-09-26 11:04:00,44.6,36.8,30.01,NNW,337,1.6,-999.0,74,-99.99,,,0.00,Acu-Link.com,2013-09-26 18:04:00,
2013-09-26 11:20:00,44.6,36.1,30.01,SW,225,1.6,-999.0,72,-99.99,,,0.00,Acu-Link.com,2013-09-26 18:20:00,
2013-09-26 11:35:00,46.4,35.7,30.01,WSW,247,2.7,-999.0,66,-99.99,,,0.00,Acu-Link.com,2013-09-26 18:35:00,
2013-09-26 11:50:00,48.2,37.4,30.01,NW,315,4.7,-999.0,66,-99.99,,,0.00,Acu-Link.com,2013-09-26 18:50:00,
2013-09-26 12:05:00,50.0,39.5,30.01,West,270,2.7,-999.0,67,-99.99,,,0.00,Acu-Link.com,2013-09-26 19:05:00,
2013-09-26 12:20:00,51.8,38.8,30.00,North,0,4.7,-999.0,61,-99.99,,,0.00,Acu-Link.com,2013-09-26 19:20:00,
2013-09-26 12:36:00,51.8,37.5,30.00,NNW,337,3.1,-999.0,58,-99.99,,,0.00,Acu-Link.com,2013-09-26 19:36:00,
2013-09-26 12:51:00,51.8,36.2,30.00,WNW,292,3.1,-999.0,55,-99.99,,,0.00,Acu-Link.com,2013-09-26 19:51:00,
2013-09-26 13:06:00,53.6,35.9,29.99,NNW,337,2.0,-999.0,51,-99.99,,,0.00,Acu-Link.com,2013-09-26 20:06:00,
2013-09-26 13:21:00,53.6,35.4,29.99,North,0,2.7,-999.0,50,-99.99,,,0.00,Acu-Link.com,2013-09-26 20:21:00,
2013-09-26 13:36:00,53.6,35.9,29.98,NNW,337,2.0,-999.0,51,-99.99,,,0.00,Acu-Link.com,2013-09-26 20:36:00,
2013-09-26 13:52:00,53.6,34.9,29.98,ENE,67,2.7,-999.0,49,-99.99,,,0.00,Acu-Link.com,2013-09-26 20:52:00,
2013-09-26 14:07:00,53.6,34.4,29.97,ESE,112,2.7,-999.0,48,-99.99,,,0.00,Acu-Link.com,2013-09-26 21:07:00,
2013-09-26 14:22:00,55.4,35.5,29.96,NNE,22,3.1,-999.0,47,-99.99,,,0.00,Acu-Link.com,2013-09-26 21:22:00,
2013-09-26 14:37:00,55.4,35.5,29.95,SSE,157,1.6,-999.0,47,-99.99,,,0.00,Acu-Link.com,2013-09-26 21:37:00,
2013-09-26 14:52:00,53.6,34.4,29.95,SSE,157,1.6,-999.0,48,-99.99,,,0.00,Acu-Link.com,2013-09-26 21:52:00,
2013-09-26 15:08:00,55.4,35.0,29.94,SW,225,1.6,-999.0,46,-99.99,,,0.00,Acu-Link.com,2013-09-26 22:08:00,
2013-09-26 15:38:00,55.4,32.7,29.94,North,0,2.0,-999.0,42,-99.99,,,0.00,Acu-Link.com,2013-09-26 22:38:00,
2013-09-26 15:53:00,55.4,35.0,29.93,ESE,112,2.0,-999.0,46,-99.99,,,0.00,Acu-Link.com,2013-09-26 22:53:00,
2013-09-26 16:08:00,53.6,32.8,29.93,East,90,1.6,-999.0,45,-99.99,,,0.00,Acu-Link.com,2013-09-26 23:08:00,
2013-09-26 16:24:00,53.6,33.3,29.92,East,90,2.0,-999.0,46,-99.99,,,0.00,Acu-Link.com,2013-09-26 23:24:00,
2013-09-26 16:39:00,53.6,32.8,29.92,NNE,22,2.0,-999.0,45,-99.99,,,0.00,Acu-Link.com,2013-09-26 23:39:00,
2013-09-26 16:54:00,53.6,31.7,29.91,West,270,0.0,-999.0,43,-99.99,,,0.00,Acu-Link.com,2013-09-26 23:54:00,
2013-09-26 17:25:00,53.6,33.9,29.90,NE,45,0.0,-999.0,47,-99.99,,,0.00,Acu-Link.com,2013-09-27 00:25:00,
2013-09-26 17:40:00,51.8,37.1,29.90,East,90,0.0,-999.0,57,-99.99,,,0.00,Acu-Link.com,2013-09-27 00:40:00,
2013-09-26 17:55:00,51.8,35.2,29.89,North,0,0.0,-999.0,53,-99.99,,,0.00,Acu-Link.com,2013-09-27 00:55:00,
2013-09-26 18:10:00,50.0,34.0,29.89,North,0,1.1,-999.0,54,-99.99,,,0.00,Acu-Link.com,2013-09-27 01:10:00,
2013-09-26 18:25:00,50.0,34.9,29.89,North,0,0.0,-999.0,56,-99.99,,,0.00,Acu-Link.com,2013-09-27 01:25:00,
2013-09-26 18:41:00,46.4,33.3,29.88,North,0,0.0,-999.0,60,-99.99,,,0.00,Acu-Link.com,2013-09-27 01:41:00,
2013-09-26 18:56:00,44.6,32.4,29.87,North,0,0.0,-999.0,62,-99.99,,,0.00,Acu-Link.com,2013-09-27 01:56:00,
2013-09-26 19:11:00,44.6,33.2,29.88,North,0,0.0,-999.0,64,-99.99,,,0.00,Acu-Link.com,2013-09-27 02:11:00,
2013-09-26 19:26:00,42.8,32.6,29.87,North,0,0.0,-999.0,67,-99.99,,,0.00,Acu-Link.com,2013-09-27 02:26:00,
2013-09-26 19:41:00,42.8,33.0,29.88,North,0,0.0,-999.0,68,-99.99,,,0.00,Acu-Link.com,2013-09-27 02:41:00,
2013-09-26 19:56:00,41.0,32.3,29.88,North,0,0.0,-999.0,71,-99.99,,,0.00,Acu-Link.com,2013-09-27 02:56:00,
2013-09-26 20:11:00,41.0,32.3,29.87,ENE,67,0.0,-999.0,71,-99.99,,,0.00,Acu-Link.com,2013-09-27 03:11:00,
2013-09-26 20:26:00,41.0,33.4,29.87,ESE,112,0.0,-999.0,74,-99.99,,,0.00,Acu-Link.com,2013-09-27 03:26:00,
2013-09-26 20:42:00,39.2,32.3,29.87,East,90,0.0,-999.0,76,-99.99,,,0.00,Acu-Link.com,2013-09-27 03:42:00,
2013-09-26 20:57:00,37.4,31.8,29.87,East,90,0.0,-999.0,80,-99.99,,,0.00,Acu-Link.com,2013-09-27 03:57:00,
2013-09-26 21:12:00,37.4,32.1,29.87,East,90,0.0,-999.0,81,-99.99,,,0.00,Acu-Link.com,2013-09-27 04:12:00,
2013-09-26 21:27:00,37.4,32.1,29.86,SSE,157,0.0,-999.0,81,-99.99,,,0.00,Acu-Link.com,2013-09-27 04:27:00,
2013-09-26 21:42:00,35.6,30.7,29.86,East,90,1.6,-999.0,82,-99.99,,,0.00,Acu-Link.com,2013-09-27 04:42:00,
2013-09-26 21:57:00,35.6,30.7,29.85,SSE,157,1.6,-999.0,82,-99.99,,,0.00,Acu-Link.com,2013-09-27 04:57:00,
2013-09-26 22:12:00,35.6,31.3,29.85,SE,135,1.1,-999.0,84,-99.99,,,0.00,Acu-Link.com,2013-09-27 05:12:00,
2013-09-26 22:27:00,35.6,31.5,29.84,SSE,157,0.0,-999.0,85,-99.99,,,0.00,Acu-Link.com,2013-09-27 05:27:00,
2013-09-26 22:42:00,35.6,31.5,29.84,ESE,112,0.0,-999.0,85,-99.99,,,0.00,Acu-Link.com,2013-09-27 05:42:00,
2013-09-26 22:58:00,35.6,31.5,29.83,South,180,1.1,-999.0,85,-99.99,,,0.00,Acu-Link.com,2013-09-27 05:58:00,
2013-09-26 23:13:00,35.6,31.5,29.82,SSE,157,1.1,-999.0,85,-99.99,,,0.00,Acu-Link.com,2013-09-27 06:13:00,
2013-09-26 23:28:00,35.6,31.5,29.82,ESE,112,1.1,-999.0,85,-99.99,,,0.00,Acu-Link.com,2013-09-27 06:28:00,
2013-09-26 23:44:00,35.6,31.3,29.81,ESE,112,1.6,-999.0,84,-99.99,,,0.00,Acu-Link.com,2013-09-27 06:44:00,
2013-09-26 23:59:00,37.4,31.5,29.81,ESE,112,2.0,-999.0,79,-99.99,,,0.00,Acu-Link.com,2013-09-27 06:59:00,